Regional Weather Roundup
Issued by NWS Binghamton, NY

Home | Current Version | Previous Version | Text Only | Print | Product List | Glossary On
Versions: 1 2 3 4 5 6 7 8 9 10 11 12 13 14 15 16 17 18 19 20 21 22 23 24 25 26 27 28 29 30 31 32 33 34 35 36 37 38 39 40 41 42 43 44 45 46 47 48 49 50
000
ASUS41 KBGM 291110
RWRBGM
RWRBGM
BINGHAMTON REGIONAL WEATHER ROUNDUP
NATIONAL WEATHER SERVICE BINGHAMTON NY
600 AM EST MON DEC 29 2014

Note: "fair" indicates few or no clouds below 12,000 feet with no
significant weather and/or obstructions to visibility.

* = Station(s) that does not report precipitation, such as rain,
snow, etc, also no thunder or fog.

!NYZ009-015>018-022>025-036-037-044>046-055>057-062-291200
...CENTRAL NEW YORK...

CITY           SKY/WX    TMP DP  RH WIND       PRES   REMARKS
BINGHAMTON     CLEAR     25  19  78 W5        30.10R WCI  19
CORTLAND       FAIR      27  23  86 SW5       30.14R WCI  21
DANSVILLE      PTCLDY    24  20  84 SE3       30.17S
ELMIRA         CLEAR     27  21  78 W3        30.15S
ITHACA         PTCLDY    28  21  75 W7        30.15R WCI  21
HAMILTON       SUNNY     30  21  69 NW3       30.11R
MONTICELLO     MOCLDY    27  23  86 NW6       30.10S WCI  20
NORWICH        CLEAR     25  21  86 CALM      30.13R
ONEONTA        CLEAR     27  19  74 W7        30.07R WCI  19
PENN YAN       PTCLDY    26  20  77 S5        30.15R WCI  20
ROME           CLOUDY    30  26  85 W6        30.15R WCI  24
SIDNEY         CLEAR     28  27  93 W5        30.14R WCI  23
SYRACUSE       FLURRIES  31  24  75 NW7       30.15R WCI  24
$$

!PAZ038>040-043-044-047-048-072-291200
...NORTHEAST PENNSYLVANIA...

CITY           SKY/WX    TMP DP  RH WIND       PRES   REMARKS
HAZLETON       MOCLDY    32  23  69 W5        30.13R WCI  27
SCRANTON       MOCLDY    32  22  66 W10       30.13S WCI  24
TOWANDA*       CLEAR     27  23  86 CALM      30.17R
$$
&&
KEY
WCI = WIND CHILL INDEX
VSB = VISIBILITY
HX  = HEAT INDEX
$$


USA.gov is the U.S. government's official web portal to all federal, state and local government web resources and services.